www.pogodaiklimat.ru

Погода и климат >> Архив погоды >> Монголия >> Баян-Ову


ПОГОДА в Баян-Ову

  • Прогноз погоды в Баян-Ову
  • Монитор погоды в Баян-Ову

АРХИВ ПОГОДЫ в Баян-Ову

Время (UTC), дата Ветер
(напр.,м/с)
 
Видим.   Явления Облачность Т
(С)
Тd
(С)
f
(%)
Тe
(С)
Тes
(С)
Комфортность P
(гПа)
Po
(гПа)
Тmin
(С)
Tmax
(С)
R
(мм)
R24
(мм)
S
(см)
03 10.06 Ю 1 50 км 8/0
[Cs]
+23.9 +11.9 47 +26 +42 жарко 1005.2 903.6
06 10.06 ЮЗ 3 50 км 9/3 600 м
[Cu med, cong Cs]
+28.5 +7.7 27 +28 +36 жарко 1001.7 902.0
09 10.06 ЮЗ 3 50 км 8/3 600 м
[Cu med, cong Cs]
+29.9 +5.9 22 +28 +32 жарко 999.3 900.3
12 10.06 В 2 50 км 8/4 600 м
[Cb cap Ac cuf Ci]
+27.2 +6.6 27 +27 +27 жарко 999.8 899.9 +30.0
15 10.06 СЗ 3 н/о 8/0
[As trans Cs]
+22.5 +6.7 36 +23 +23 комфорт 1002.1 900.4
18 10.06 СЗ 4 н/о 4/0
[Ac As]
+19.2 +7.6 47 +20 +20 1003.5 900.5
21 10.06 З 1 50 км 8/4 600 м
[Sc Ac trans]
+18.9 +8.8 52 +21 +21 комфорт 1003.4 900.4
00 11.06 З 2 50 км 9/5 600 м
[Sc Ac lent Cs]
+21.4 +11.4 53 +23 +25 комфорт 1002.9 900.8 +15.8
03 11.06 З 7 50 км 9/9 600 м
[Sc]
+26.8 +5.5 26 +26 +27 жарко 1000.3 900.1
06 11.06 З 14 50 км 9/9 600 м
[Cb cap]
+21.9 +10.7 49 +24 +24 комфорт 1003.5 901.5
09 11.06 Ю 3 50 км 6/5 600 м
[Sc Ci fib]
+23.3 +10.0 43 +25 +28 комфорт 1001.4 900.0
12 11.06 З 1 50 км 5/3 600 м
[Sc diur, vesp Ac cast Ci sp]
+19.8 +12.1 61 +22 +23 комфорт 1002.4 998.3 +27.3
15 11.06 штиль 0 н/о 5/3 600 м
[Cb cap Ac cast]
+17.0 +12.3 74 +17 +17 1004.5 900.5
18 11.06 С 6 50 км 10/1 600 м
[Cu med, cong Ac As]
+18.3 +10.2 59 +18 +18 1006.0 902.6
21 11.06 С 7 50 км 8/3 600 м
[Sc Ac cast Ci fib]
+16.8 +10.3 65 +16 +16 1009.3 905.0
00 12.06 С 9 50 км 9/1 600 м
[Cu med, cong Ac cast Cs]
+17.2 +6.3 49 +16 +16 1010.7 906.3 +16.2
03 12.06 С 5 50 км 9/0
[Ac lent Cs]
+20.6 +5.4 37 +21 +28 комфорт 1009.3 906.2
06 12.06 СЗ 7 50 км 9/3 600 м
[Frnb As trans]
+22.5 +2.8 27 +22 +24 комфорт 1007.2 905.0
09 12.06 СЗ 8 50 км 9/3 600 м
[Frnb As trans]
+22.6 +3.2 28 +22 +23 комфорт 1006.3 904.2
12 12.06 СЗ 5 50 км 3/3 600 м
[Cu med, cong]
+20.8 +1.8 28 +21 +21 комфорт 1007.3 904.5 +23.0
15 12.06 СЗ 7 н/о ясно +16.3 +0.6 34 +15 +15 1010.4 905.8
18 12.06 ЮЗ 1 н/о ясно +9.4 +1.7 59 +9 +9 1014.5 907.1
21 12.06 З 2 50 км 4/0
[Ac lent Ci fib]
+8.5 +2.9 68 +7 +7 1015.9 907.9
00 13.06 СЗ 3 50 км 3/0
[Ci]
+16.3 +3.8 43 +16 +21 1012.5 907.7 +8.2
03 13.06 С 4 50 км 3/0
[Ci]
+19.1 +2.9 34 +19 +30 1010.6 906.8
06 13.06 СЗ 4 50 км 3/3 600 м
[Cu hum]
+22.1 +3.7 30 +22 +30 комфорт 1008.1 905.6
09 13.06 В 4 50 км ясно +23.8 +3.2 26 +23 +28 комфорт 1005.9 904.3
12 13.06 В 5 50 км 3/0
[Ac lent]
+21.2 +5.5 36 +22 +22 комфорт 1007.1 904.5 +24.5
15 13.06 В 3 н/о ясно +15.3 +4.4 48 +15 +15 1011.0 905.9
18 13.06 С 4 н/о ясно +13.1 +3.5 52 +12 +12 1012.8 906.8
21 13.06 СВ 2 50 км 3/0
[Ac lent Ci]
+11.2 +3.5 59 +10 +10 1014.2 907.4
00 14.06 В 2 50 км 1/0
[Ci]
+16.5 +4.8 46 +17 +23 1012.7 907.9 +9.4
03 14.06 ЮВ 3 50 км 1/0
[Ci]
+22.9 +2.0 25 +22 +36 комфорт 1009.2 906.8
06 14.06 Ю 4 50 км 3/0
[Ci]
+25.7 +3.6 24 +25 +35 комфорт 1006.2 905.1
09 14.06 В 4 50 км 1/0
[Ci]
+27.1 +4.2 23 +26 +30 жарко 1003.9 903.5
12 14.06 В 6 50 км 4/0
[Ac lent Ci]
+23.3 +5.7 32 +24 +24 комфорт 1005.6 903.8 +27.3
15 14.06 ЮВ 7 н/о 3/0
[Ac trans]
+18.8 +4.2 38 +18 +18 1007.9 904.4
18 14.06 ЮВ 7 н/о 8/0
[Ac As]
+17.8 +2.1 35 +17 +17 1007.9 904.1
21 14.06 СВ 3 50 км 9/0
[Ac As Ci]
+17.5 +1.5 34 +18 +18 1008.7 904.7
00 15.06 В 4 50 км 9/0
[As trans]
+18.9 +3.1 35 +19 +21 1009.1 905.5 +16.8
03 15.06 Ю 6 50 км 9/0
[Ac As]
+23.0 +2.5 26 +23 +25 комфорт 1006.8 904.8
06 15.06 ЮВ 4 50 км 9/0
[As trans]
+23.7 +2.3 25 +23 +28 комфорт 1004.9 903.4
09 15.06 ЮВ 6 50 км 9/0
[As trans]
+24.0 +3.9 27 +24 +25 комфорт 1003.4 902.1
12 15.06 ЮВ 5 50 км 9/0
[Ac As Cs]
+22.3 +3.4 29 +22 +22 комфорт 1004.3 902.3 +24.5
15 15.06 СВ 4 50 км 9/0
[Ac As Cs]
+16.3 +4.7 46 +16 +16 1006.7 902.5
18 15.06 С 5 н/о 9/0
[As trans]
+16.4 +3.4 42 +16 +16 1006.3 902.2
21 15.06 СВ 4 50 км 9/1 600 м
[Frnb As trans]
+15.0 +3.8 47 +14 +14 1006.3 901.6
00 16.06 СЗ 1 50 км 9/3 600 м
[Frnb As trans]
+17.2 +4.9 44 +18 +21 1005.9 902.0 +14.7
03 16.06 З 7 50 км 10/10 600 м
[Sc]
+19.1 +9.9 55 +19 +19 1005.8 902.7
06 16.06 З 2 50 км {ливн. осадки} 9/3 600 м
[Cb calv Ac As]
+18.3 +11.1 63 +19 +24 1006.2 902.7
09 16.06 Ю 3 50 км 9/3 600 м
[Cb calv Ac cast]
+19.9 +8.3 47 +21 +23 комфорт 1004.9 902.1
12 16.06 СВ 2 50 км 9/5 600 м
[Cb calv Ci fib]
+18.7 +4.0 38 +19 +19 1005.4 902.1 +20.3 2
15 16.06 СВ 3 н/о 9/9 600 м
[Cb cap]
+16.9 +2.0 37 +17 +17 1006.8 902.8
18 16.06 С 3 н/о 9/4 600 м
[Cb cap As trans]
+15.6 +1.7 39 +15 +15 1006.9 902.4
21 16.06 С 5 50 км 9/0
[Ac As]
+14.3 +1.0 40 +13 +13 1007.7 902.7
00 17.06 В 2 50 км 8/0
[Ac lent Cs]
+18.4 +3.5 37 +19 +22 1006.6 903.1 +13.7

 

Местоположение метеостанции Баян-Ову (Монголия): широта 47.78 долгота 112.11 высота над уровнем моря 926 м.

В архиве по умолчанию представлена погода в Баян-Ову за последнюю неделю. Архивные данные за месяц целиком и за предыдущие месяцы, начиная с января 2011 года, Вы можете получить, выбрав интересующий диапазон дат из раскрывающегося списка и нажав кнопку "Ввод!".


*Определитесь, кто Вы:
робот инопланетянин человек

Внимание! Время в таблицах - всемирное. Для получения местного времени необходимо прибавить поправку, которая равна 8 ч.

Смотрите также архив погоды в соседних городах и на ближайших метеорологических станциях:

Погода в Ундерхаане (Монголия) (122 км)
Погода в Татаале (Монголия) (129 км)
Погода в Биндэре (Монголия) (146 км)
Погода в Баруун-Урте (Монголия) (151 км)
Погода в Чойбалсане (Монголия) (185 км)
Погода в Кыре (Забайкальский край, Россия) (200 км)
Погода в Букукуне (Забайкальский край, Россия) (200 км)
Погода в Мангуте (Забайкальский край, Россия) (217 км)
Погода в Баяндэлгэре (Монголия) (229 км)
Погода в Дашбалбаре (Монголия) (259 км)

Пояснения к столбцам:

Ветер - указаны скорость ветра в м/с - средняя за 10 мин, порывы в срок и между сроками (в фигурных скобках) и направление, откуда дует ветер: С - северный, СВ - северо-восточный, В - восточный, ЮВ - юго-восточный, Ю - южный, ЮЗ - юго-западный, З - западный, СЗ - северо-западный.
Видимость - горизонтальная дальность видимости в метрах или километрах. При видимости от 1 до 10 км при отсутствии осадков обычно наблюдается дымка, при ухудшении видимости до 1 км и менее - туман. В сухую погоду видимость может ухудшаться дымом, пылью или мглою.
Явления - указаны атмосферные явления, наблюдавшиеся в срок или в последний час перед сроком; фигурными скобками обозначены явления, наблюдавшиеся между сроками (за 1-3 часа до срока); квадратными скобками обозначены град или гололедные отложения с указанием их диаметра в мм.
Облачность - указаны через наклонную черту общая и нижняя облачность в баллах и высота нижней границы облаков в метрах; квадратными скобками обозначены формы облаков: Ci - перистые, Cs - перисто-слоистые, Cc - перисто-кучевые, Ac - высококучевые, As - высокослоистые, Sc - слоисто-кучевые, Ns - слоисто-дождевые, Cu - кучевые, Cb - кучево-дождевые. Подробнее классификацию облаков см. в Атласе облаков (PDF).
T - Температура воздуха - температура, измеренная на высоте 2 м над землей.
Td - Температура точки росы - температура, при понижении до которой содержащийся в воздухе водяной пар достигнет насыщения.
f - Относительная влажность воздуха - влажноcть воздуха, измеренная на высоте 2 м над землей.
Te - Эффективная температура - температура, которую ощущает одетый по сезону человек в тени. Характеристика душности погоды. При расчете учитывается влияние влажности воздуха и скорости ветра на теплоощущения человека.
Tes - Эффективная температура на солнце - температура, которую ощущает человек, с поправкой на солнечный нагрев. Характеристика знойности погоды. Зависит от высоты солнца над горизонтом, облачности и скорости ветра. Ночью, в пасмурную погоду, а также при ветре 12 м/с и более поправка равна нулю.
P - Атмосферное давление - приведенное к уровню моря атмосферное давление.
Po - Атмосферное давление - измеренное на уровне метеостанции атмосферное давление.
Tmin - Минимальная температура - минимум температуры воздуха на высоте 2 м над землей.
Tmax - Максимальная температура - максимум температуры воздуха на высоте 2 м над землей.
R - Количество осадков - Количество выпавших осадков за период времени, мм. При наведении курсора мыши на число - период времени, за который выпало указанное количество осадков.
R24 - Количество осадков - Количество выпавших осадков за 24 часа, мм.
S - Снежный покров - Высота снежного покрова, см. При наведении курсора мыши на число - состояние снежного покрова и степень покрытия местности в баллах.